Погода в Пленишнике

Россия / Вологодская область     58°43′06″N   37°23′49″E
темп.,
°C
ветер,
м/с
пор.,
м/с
влажн.,
%
обл.,
%
осадки,
мм/ч
давл.,
гПа
погр.,
м
16 мая, вс
вс1600:00+12ююз399440 0.2 1005207
03:00+11ююз311960 0.3 1006284
06:00+12ююз311925 0.0 1006387
09:00+17юз587518 0.0 1007824
12:00+18юз5869100 0.4 10081374
15:00+18юз586827 0.9 10091151
18:00+17зюз48795 1.9 1009758
21:00+14зюз2692100 2.5 1011132
17 мая, пн
пн1700:00+14з228911 0.0 101234
03:00+11юз22945 0.0 101430
06:00+13юз23914 0.0 1016101
09:00+18ю117093 0.0 1016480
12:00+21юв235439 0.0 10161182
15:00+22юв445031 0.0 10151159
18:00+21вюв376095 0.0 1014718
21:00+15вюв3108378 0.0 1014196
18 мая, вт
вт1800:00+15вюв3148835 0.1 1013326
03:00+14юв4129464 0.2 1013285
06:00+14вюв41294100 0.0 1012264
09:00+19юв613705 0.0 1012422
12:00+24юв6134953 0.0 1011828
15:00+26юв7134433 0.0 10101303
18:00+23юв513555 0.0 1010773
21:00+18юв514735 0.0 1010355
19 мая, ср
ср1900:00+16юв414805 0.0 1010337
03:00+15юв4128582 0.0 1010267
06:00+15вюв4118465 0.0 1010276
09:00+20юв59621 0.0 1010495
12:00+25юв59485 0.0 1009899
15:00+27юв612421 0.0 10091562
18:00+25юв411534 0.0 10081064
21:00+20юв616685 0.0 1008491
20 мая, чт
чт2000:00+18ююв41478100 0.3 1008472
03:00+15вюв249256 0.8 100894
06:00+15юв388931 0.0 1008242
09:00+19юв4870100 0.0 1008516
12:00+23вюв57545 0.0 1006983
15:00+17юв41489100 3.9 1004536
18:00+18ю8148591 4.6 10031338
21:00+13ююв5129254 4.6 1005821